| time (UTC) | temp F | wind direction | speed MPH | gust MPH | rain 1hr in | rain 24hr in | rain mn in | humidity % | barometer mb |
| 20260904052512 | 54 | 6 | 0.0 | 0.0 | 0.00 | 0.02 | 0.02 | 99 | 1007.5 |
| 20260904052008 | 54 | 14 | 0.0 | 0.0 | 0.00 | 0.02 | 0.02 | 99 | 1007.6 |
| 20260904051504 | 54 | 17 | 0.0 | 0.0 | 0.00 | 0.02 | 0.02 | 99 | 1007.4 |
| 20260904051003 | 54 | 59 | 0.0 | 0.0 | 0.00 | 0.02 | 0.02 | 99 | 1007.6 |
| 20260904050500 | 54 | 13 | 0.0 | 0.0 | 0.00 | 0.02 | 0.02 | 98 | 1007.6 |
| 20260904045955 | 54 | 20 | 0.0 | 0.0 | 0.00 | 0.02 | 0.02 | 98 | 1007.7 |
| 20260904045450 | 54 | 38 | 0.0 | 0.0 | 0.00 | 0.02 | 0.02 | 98 | 1007.9 |
| 20260904044944 | 54 | 17 | 0.0 | 0.0 | 0.00 | 0.02 | 0.02 | 98 | 1007.7 |
| 20260904044441 | 54 | 359 | 0.0 | 0.0 | 0.00 | 0.02 | 0.02 | 98 | 1007.6 |
| 20260904043937 | 55 | 40 | 0.0 | 0.0 | 0.00 | 0.02 | 0.02 | 98 | 1007.7 |
| 20260904043433 | 55 | 39 | 0.0 | 0.0 | 0.00 | 0.02 | 0.02 | 98 | 1007.8 |
| 20260904042929 | 55 | 38 | 0.0 | 0.0 | 0.00 | 0.02 | 0.02 | 97 | 1007.7 |
| 20260904042425 | 55 | 32 | 0.0 | 0.0 | 0.00 | 0.02 | 0.02 | 97 | 1007.7 |
| 20260904041919 | 55 | 48 | 0.0 | 0.0 | 0.00 | 0.02 | 0.02 | 97 | 1007.6 |
| 20260904041416 | 55 | 40 | 0.0 | 0.0 | 0.00 | 0.02 | 0.02 | 97 | 1007.6 |
| 20260904040912 | 55 | 49 | 0.0 | 0.0 | 0.00 | 0.02 | 0.02 | 97 | 1007.6 |
| 20260904040406 | 55 | 75 | 0.0 | 0.0 | 0.00 | 0.02 | 0.02 | 97 | 1007.6 |
| 20260904035902 | 55 | 29 | 0.0 | 0.0 | 0.00 | 0.02 | 0.02 | 97 | 1007.4 |
| 20260904035358 | 55 | 46 | 0.0 | 0.0 | 0.00 | 0.02 | 0.02 | 98 | 1007.3 |
| 20260904034857 | 55 | 33 | 0.0 | 0.0 | 0.00 | 0.02 | 0.02 | 98 | 1007.3 |
| 20260904034353 | 55 | 46 | 0.0 | 0.0 | 0.00 | 0.02 | 0.02 | 97 | 1007.3 |
| 20260904033848 | 55 | 32 | 0.0 | 1.0 | 0.00 | 0.02 | 0.02 | 98 | 1007.2 |
| 20260904033344 | 55 | 10 | 0.0 | 0.0 | 0.00 | 0.02 | 0.02 | 98 | 1007.1 |
| 20260904032840 | 55 | 7 | 0.0 | 0.0 | 0.00 | 0.02 | 0.02 | 99 | 1007.2 |
| 20260904032334 | 56 | 4 | 0.0 | 0.0 | 0.00 | 0.02 | 0.02 | 98 | 1007.0 |
| 20260904031828 | 56 | 25 | 0.0 | 0.0 | 0.00 | 0.02 | 0.02 | 99 | 1007.1 |
| 20260904031324 | 56 | 45 | 1.0 | 1.0 | 0.00 | 0.02 | 0.02 | 99 | 1007.1 |
| 20260904030820 | 56 | 31 | 0.0 | 0.0 | 0.00 | 0.02 | 0.02 | 98 | 1007.2 |
| 20260904030315 | 57 | 31 | 0.0 | 0.0 | 0.00 | 0.02 | 0.02 | 98 | 1007.1 |
| 20260904025811 | 57 | 31 | 0.0 | 0.0 | 0.00 | 0.02 | 0.02 | 97 | 1007.1 |
| 20260904025307 | 57 | 31 | 0.0 | 0.0 | 0.00 | 0.02 | 0.02 | 97 | 1006.9 |
| 20260904024807 | 57 | 31 | 0.0 | 0.0 | 0.00 | 0.02 | 0.02 | 97 | 1007.0 |
| 20260904024302 | 57 | 31 | 0.0 | 0.0 | 0.00 | 0.02 | 0.02 | 96 | 1007.1 |
| 20260904023759 | 58 | 31 | 0.0 | 0.0 | 0.00 | 0.02 | 0.02 | 96 | 1007.3 |
| 20260904023254 | 58 | 31 | 0.0 | 0.0 | 0.00 | 0.02 | 0.02 | 97 | 1006.9 |
| 20260904022753 | 59 | 29 | 0.0 | 0.0 | 0.00 | 0.02 | 0.02 | 96 | 1007.1 |
| 20260904022251 | 59 | 29 | 0.0 | 0.0 | 0.00 | 0.02 | 0.02 | 96 | 1007.0 |
| 20260904021746 | 59 | 30 | 0.0 | 0.0 | 0.00 | 0.02 | 0.02 | 95 | 1006.8 |
| 20260904021241 | 59 | 30 | 0.0 | 0.0 | 0.00 | 0.02 | 0.02 | 94 | 1006.8 |
| 20260904020737 | 59 | 32 | 0.0 | 0.0 | 0.00 | 0.02 | 0.02 | 91 | 1006.9 |
| 20260904020236 | 60 | 25 | 0.0 | 0.0 | 0.00 | 0.02 | 0.02 | 92 | 1007.0 |
| 20260904015735 | 61 | 15 | 0.0 | 0.0 | 0.00 | 0.02 | 0.02 | 91 | 1007.3 |
| 20260904015231 | 61 | 13 | 0.0 | 0.0 | 0.00 | 0.02 | 0.02 | 90 | 1007.0 |
| 20260904014729 | 62 | 352 | 0.0 | 0.0 | 0.00 | 0.02 | 0.02 | 89 | 1007.0 |
| 20260904014224 | 61 | 350 | 1.0 | 1.0 | 0.00 | 0.02 | 0.02 | 88 | 1007.1 |
| 20260904013721 | 61 | 22 | 0.0 | 0.0 | 0.00 | 0.02 | 0.02 | 93 | 1007.2 |
| 20260904013216 | 61 | 22 | 0.0 | 0.0 | 0.00 | 0.02 | 0.02 | 93 | 1007.1 |
| 20260904012712 | 61 | 22 | 0.0 | 0.0 | 0.00 | 0.02 | 0.02 | 92 | 1007.1 |
| 20260904012211 | 61 | 23 | 0.0 | 0.0 | 0.00 | 0.02 | 0.02 | 92 | 1007.0 |
| 20260904011711 | 61 | 21 | 0.0 | 0.0 | 0.00 | 0.02 | 0.02 | 93 | 1007.2 |
| 20260904011207 | 61 | 22 | 0.0 | 0.0 | 0.00 | 0.02 | 0.02 | 93 | 1007.2 |
| 20260904010701 | 61 | 21 | 0.0 | 0.0 | 0.00 | 0.02 | 0.02 | 92 | 1007.4 |
| 20260904010158 | 61 | 20 | 0.0 | 0.0 | 0.00 | 0.02 | 0.02 | 93 | 1007.3 |
| 20260904005653 | 61 | 19 | 0.0 | 0.0 | 0.00 | 0.02 | 0.02 | 92 | 1007.4 |
| 20260904005149 | 61 | 21 | 0.0 | 0.0 | 0.00 | 0.02 | 0.02 | 93 | 1007.4 |
| 20260904004643 | 61 | 11 | 0.0 | 0.0 | 0.00 | 0.02 | 0.02 | 92 | 1007.4 |
| 20260904004138 | 62 | 310 | 0.0 | 0.0 | 0.00 | 0.02 | 0.02 | 89 | 1007.4 |
| 20260904003634 | 62 | 309 | 0.0 | 0.0 | 0.00 | 0.02 | 0.02 | 81 | 1007.5 |
| 20260904003130 | 62 | 269 | 0.0 | 1.0 | 0.00 | 0.02 | 0.02 | 79 | 1007.6 |
| 20260904002625 | 63 | 34 | 0.0 | 0.0 | 0.00 | 0.02 | 0.02 | 89 | 1007.3 |
| 20260904002120 | 63 | 21 | 0.0 | 0.0 | 0.00 | 0.02 | 0.02 | 89 | 1007.5 |
| 20260904001615 | 63 | 12 | 0.0 | 0.0 | 0.00 | 0.02 | 0.02 | 86 | 1007.3 |
| 20260904001114 | 63 | 27 | 0.0 | 0.0 | 0.00 | 0.02 | 0.02 | 83 | 1007.4 |
| 20260904000609 | 63 | 353 | 0.0 | 0.0 | 0.00 | 0.02 | 0.02 | 83 | 1007.6 |
| 20260904000105 | 63 | 341 | 0.0 | 0.0 | 0.00 | 0.02 | 0.02 | 78 | 1007.5 |
| 20260903235604 | 63 | 353 | 0.0 | 0.0 | 0.00 | 0.02 | 0.02 | 82 | 1007.5 |
| 20260903235101 | 63 | 357 | 0.0 | 0.0 | 0.00 | 0.02 | 0.02 | 84 | 1007.5 |
| 20260903234555 | 63 | 16 | 0.0 | 0.0 | 0.00 | 0.02 | 0.02 | 86 | 1007.5 |
| 20260903234051 | 63 | 12 | 0.0 | 0.0 | 0.00 | 0.02 | 0.02 | 89 | 1007.6 |
| 20260903233547 | 62 | 0 | 0.0 | 0.0 | 0.00 | 0.02 | 0.02 | 85 | 1007.5 |
| 20260903233043 | 62 | 343 | 0.0 | 0.0 | 0.00 | 0.02 | 0.02 | 84 | 1007.5 |
| 20260903232538 | 62 | 10 | 0.0 | 0.0 | 0.00 | 0.02 | 0.02 | 79 | 1007.5 |
| 20260903232033 | 62 | 8 | 0.0 | 0.0 | 0.00 | 0.02 | 0.02 | 82 | 1007.5 |
| 20260903231527 | 62 | 349 | 0.0 | 0.0 | 0.00 | 0.02 | 0.02 | 81 | 1007.6 |
| 20260903231022 | 62 | 352 | 0.0 | 0.0 | 0.00 | 0.02 | 0.02 | 79 | 1007.7 |
| 20260903230518 | 63 | 28 | 0.0 | 0.0 | 0.00 | 0.02 | 0.02 | 85 | 1007.6 |
| 20260903230016 | 63 | 39 | 0.0 | 0.0 | 0.00 | 0.02 | 0.02 | 82 | 1007.6 |
| 20260903225514 | 62 | 15 | 0.0 | 0.0 | 0.00 | 0.02 | 0.02 | 84 | 1007.7 |
| 20260903225010 | 62 | 331 | 1.0 | 1.0 | 0.00 | 0.02 | 0.02 | 85 | 1007.7 |
| 20260903224506 | 62 | 121 | 3.0 | 3.0 | 0.00 | 0.02 | 0.02 | 84 | 1007.7 |
| 20260903224001 | 62 | 347 | 0.0 | 0.0 | 0.00 | 0.02 | 0.02 | 88 | 1007.8 |
| 20260903223500 | 62 | 18 | 0.0 | 0.0 | 0.00 | 0.02 | 0.02 | 88 | 1008.1 |
| 20260903223000 | 62 | 346 | 0.0 | 0.0 | 0.00 | 0.02 | 0.02 | 91 | 1008.0 |
| 20260903222455 | 62 | 306 | 0.0 | 0.0 | 0.00 | 0.02 | 0.02 | 91 | 1008.0 |
| 20260903221954 | 62 | 330 | 2.0 | 3.0 | 0.00 | 0.02 | 0.02 | 91 | 1008.1 |
| 20260903221450 | 62 | 346 | 0.0 | 0.0 | 0.00 | 0.02 | 0.02 | 90 | 1008.1 |
| 20260903220947 | 63 | 334 | 1.0 | 2.0 | 0.00 | 0.02 | 0.02 | 89 | 1008.0 |
| 20260903220442 | 63 | 342 | 2.0 | 3.0 | 0.00 | 0.02 | 0.02 | 89 | 1008.0 |
| 20260903215939 | 63 | 344 | 0.0 | 0.0 | 0.00 | 0.02 | 0.02 | 88 | 1007.9 |
| 20260903215436 | 64 | 341 | 2.0 | 2.0 | 0.00 | 0.02 | 0.02 | 86 | 1008.0 |
| 20260903214934 | 64 | 303 | 2.0 | 2.0 | 0.00 | 0.02 | 0.02 | 85 | 1007.9 |
| 20260903214430 | 64 | 342 | 0.0 | 1.0 | 0.00 | 0.02 | 0.02 | 87 | 1007.9 |
| 20260903213930 | 64 | 257 | 1.0 | 2.0 | 0.00 | 0.02 | 0.02 | 84 | 1007.8 |
| 20260903213425 | 64 | 350 | 1.0 | 1.0 | 0.00 | 0.02 | 0.02 | 84 | 1007.8 |
| 20260903212921 | 64 | 12 | 1.0 | 1.0 | 0.00 | 0.02 | 0.02 | 84 | 1007.7 |
| 20260903212417 | 64 | 5 | 0.0 | 0.0 | 0.00 | 0.02 | 0.02 | 87 | 1007.8 |
| 20260903211916 | 65 | 337 | 1.0 | 2.0 | 0.00 | 0.02 | 0.02 | 84 | 1007.9 |
| 20260903211412 | 65 | 356 | 3.0 | 5.0 | 0.00 | 0.02 | 0.02 | 85 | 1007.7 |
| 20260903210908 | 64 | 341 | 1.0 | 2.0 | 0.00 | 0.02 | 0.02 | 87 | 1007.7 |
| 20260903210408 | 64 | 356 | 2.0 | 2.0 | 0.00 | 0.02 | 0.02 | 88 | 1007.7 |
| 20260903205903 | 63 | 348 | 1.0 | 2.0 | 0.00 | 0.02 | 0.02 | 90 | 1007.5 |
| 20260903205403 | 63 | 337 | 2.0 | 2.0 | 0.00 | 0.02 | 0.02 | 90 | 1007.6 |
| 20260903204857 | 62 | 343 | 2.0 | 3.0 | 0.00 | 0.02 | 0.02 | 90 | 1007.5 |
| 20260903204353 | 63 | 346 | 2.0 | 3.0 | 0.00 | 0.02 | 0.02 | 89 | 1007.3 |
| 20260903203849 | 64 | 356 | 1.0 | 2.0 | 0.00 | 0.02 | 0.02 | 90 | 1007.3 |
| 20260903203345 | 63 | 351 | 0.0 | 0.0 | 0.00 | 0.02 | 0.02 | 92 | 1007.3 |
| 20260903202843 | 63 | 352 | 1.0 | 1.0 | 0.00 | 0.02 | 0.02 | 94 | 1007.5 |
| 20260903202340 | 63 | 350 | 0.0 | 0.0 | 0.00 | 0.02 | 0.02 | 93 | 1007.4 |
| 20260903201839 | 63 | 20 | 0.0 | 0.0 | 0.00 | 0.02 | 0.02 | 94 | 1007.3 |
| 20260903201335 | 63 | 4 | 0.0 | 0.0 | 0.00 | 0.02 | 0.02 | 94 | 1007.3 |
| 20260903200833 | 63 | 1 | 0.0 | 1.0 | 0.00 | 0.02 | 0.02 | 91 | 1007.4 |
| 20260903200329 | 63 | 13 | 0.0 | 0.0 | 0.00 | 0.02 | 0.02 | 92 | 1007.5 |
| 20260903195824 | 62 | 18 | 0.0 | 0.0 | 0.00 | 0.02 | 0.02 | 92 | 1007.7 |
| 20260903195321 | 63 | 345 | 0.0 | 0.0 | 0.00 | 0.02 | 0.02 | 93 | 1007.6 |
| 20260903194815 | 63 | 352 | 2.0 | 2.0 | 0.00 | 0.02 | 0.02 | 91 | 1007.8 |
| 20260903194311 | 63 | 347 | 0.0 | 0.0 | 0.00 | 0.02 | 0.02 | 91 | 1007.5 |
| 20260903193806 | 63 | 341 | 1.0 | 1.0 | 0.00 | 0.02 | 0.02 | 92 | 1007.6 |
| 20260903193302 | 63 | 351 | 1.0 | 1.0 | 0.00 | 0.02 | 0.02 | 90 | 1007.7 |
| 20260903192757 | 64 | 351 | 1.0 | 2.0 | 0.00 | 0.02 | 0.02 | 89 | 1007.4 |
| 20260903192253 | 63 | 343 | 0.0 | 1.0 | 0.00 | 0.02 | 0.02 | 93 | 1007.8 |
| 20260903191749 | 63 | 28 | 0.0 | 0.0 | 0.00 | 0.02 | 0.02 | 91 | 1007.9 |
| 20260903191244 | 62 | 19 | 0.0 | 0.0 | 0.00 | 0.02 | 0.02 | 92 | 1007.7 |
| 20260903190738 | 62 | 15 | 0.0 | 0.0 | 0.00 | 0.02 | 0.02 | 97 | 1008.0 |
| 20260903190233 | 61 | 2 | 1.0 | 1.0 | 0.00 | 0.02 | 0.02 | 98 | 1008.0 |
| 20260903185728 | 60 | 29 | 0.0 | 0.0 | 0.00 | 0.02 | 0.02 | 98 | 1008.0 |
| 20260903185222 | 61 | 9 | 0.0 | 0.0 | 0.00 | 0.02 | 0.02 | 99 | 1008.0 |
| 20260903184719 | 61 | 345 | 0.0 | 0.0 | 0.00 | 0.02 | 0.02 | 99 | 1008.0 |
| 20260903184215 | 61 | 354 | 0.0 | 0.0 | 0.00 | 0.02 | 0.02 | 99 | 1008.0 |
| 20260903183715 | 61 | 349 | 0.0 | 0.0 | 0.00 | 0.02 | 0.02 | 99 | 1008.0 |
| 20260903183209 | 60 | 351 | 0.0 | 0.0 | 0.00 | 0.02 | 0.02 | 99 | 1007.9 |
| 20260903182708 | 60 | 28 | 0.0 | 0.0 | 0.00 | 0.02 | 0.02 | 99 | 1007.8 |
| 20260903182203 | 60 | 26 | 0.0 | 0.0 | 0.00 | 0.02 | 0.02 | 99 | 1008.0 |
| 20260903181701 | 60 | 24 | 0.0 | 0.0 | 0.00 | 0.02 | 0.02 | 99 | 1008.0 |
| 20260903181156 | 60 | 15 | 0.0 | 0.0 | 0.00 | 0.02 | 0.02 | 99 | 1007.9 |
| 20260903180652 | 60 | 11 | 0.0 | 0.0 | 0.00 | 0.02 | 0.02 | 99 | 1007.9 |
| 20260903180146 | 60 | 5 | 0.0 | 0.0 | 0.00 | 0.02 | 0.02 | 99 | 1007.7 |
| 20260903175645 | 60 | 32 | 0.0 | 0.0 | 0.00 | 0.02 | 0.02 | 99 | 1007.9 |
| 20260903175145 | 59 | 32 | 0.0 | 1.0 | 0.00 | 0.02 | 0.02 | 99 | 1007.5 |
| 20260903174639 | 59 | 23 | 0.0 | 0.0 | 0.00 | 0.02 | 0.02 | 99 | 1007.7 |
| 20260903174134 | 59 | 41 | 1.0 | 1.0 | 0.00 | 0.02 | 0.02 | 99 | 1007.7 |
| 20260903173629 | 59 | 23 | 0.0 | 0.0 | 0.00 | 0.02 | 0.02 | 99 | 1007.7 |
| 20260903173126 | 59 | 12 | 0.0 | 0.0 | 0.00 | 0.02 | 0.02 | 99 | 1007.7 |
| 20260903172625 | 59 | 0 | 0.0 | 0.0 | 0.00 | 0.02 | 0.02 | 99 | 1007.7 |
| 20260903172121 | 59 | 0 | 0.0 | 0.0 | 0.00 | 0.02 | 0.02 | 99 | 1007.8 |
| 20260903171620 | 59 | 0 | 0.0 | 0.0 | 0.00 | 0.02 | 0.02 | 99 | 1007.6 |
| 20260903171117 | 59 | 355 | 0.0 | 0.0 | 0.00 | 0.02 | 0.02 | 99 | 1007.8 |
| 20260903170615 | 59 | 355 | 0.0 | 0.0 | 0.00 | 0.02 | 0.02 | 99 | 1007.8 |
| 20260903170111 | 59 | 355 | 0.0 | 0.0 | 0.00 | 0.02 | 0.02 | 99 | 1007.7 |
| 20260903165608 | 59 | 354 | 0.0 | 0.0 | 0.00 | 0.02 | 0.02 | 99 | 1007.7 |
| 20260903165104 | 59 | 356 | 0.0 | 0.0 | 0.00 | 0.02 | 0.02 | 99 | 1007.6 |
| 20260903164558 | 59 | 356 | 0.0 | 0.0 | 0.00 | 0.02 | 0.02 | 99 | 1007.7 |
| 20260903164054 | 59 | 356 | 0.0 | 0.0 | 0.00 | 0.02 | 0.02 | 99 | 1007.7 |
| 20260903163549 | 59 | 356 | 0.0 | 0.0 | 0.00 | 0.02 | 0.02 | 99 | 1007.6 |
| 20260903163045 | 58 | 355 | 0.0 | 0.0 | 0.00 | 0.02 | 0.02 | 99 | 1007.9 |
| 20260903162541 | 58 | 7 | 0.0 | 0.0 | 0.00 | 0.02 | 0.02 | 99 | 1007.9 |
| 20260903162037 | 58 | 8 | 0.0 | 0.0 | 0.05 | 0.02 | 0.02 | 99 | 1007.8 |
| 20260903161532 | 58 | 8 | 0.0 | 0.0 | 0.05 | 0.02 | 0.02 | 99 | 1007.8 |
| 20260903161028 | 58 | 8 | 0.0 | 0.0 | 0.05 | 0.02 | 0.02 | 99 | 1007.8 |
| 20260903160526 | 58 | 8 | 0.0 | 0.0 | 0.00 | 0.01 | 0.01 | 99 | 1008.1 |
| 20260903160022 | 58 | 8 | 0.0 | 0.0 | 0.00 | 0.01 | 0.01 | 99 | 1007.9 |
| 20260903155520 | 58 | 8 | 0.0 | 0.0 | 0.00 | 0.01 | 0.01 | 99 | 1008.0 |
| 20260903155016 | 58 | 8 | 0.0 | 0.0 | 0.00 | 0.01 | 0.01 | 99 | 1007.9 |
| 20260903154512 | 58 | 8 | 0.0 | 0.0 | 0.00 | 0.01 | 0.01 | 99 | 1008.0 |
| 20260903154008 | 58 | 7 | 0.0 | 0.0 | 0.00 | 0.01 | 0.01 | 99 | 1008.1 |
| 20260903153503 | 58 | 9 | 0.0 | 0.0 | 0.00 | 0.01 | 0.01 | 99 | 1007.9 |
| 20260903152959 | 58 | 9 | 0.0 | 0.0 | 0.07 | 0.01 | 0.01 | 99 | 1007.9 |
| 20260903152454 | 58 | 9 | 0.0 | 1.0 | 0.07 | 0.01 | 0.01 | 99 | 1008.0 |
| 20260903151950 | 58 | 10 | 0.0 | 0.0 | 0.00 | 0.00 | 0.00 | 99 | 1007.8 |
| 20260903151444 | 58 | 9 | 0.0 | 0.0 | 0.00 | 0.00 | 0.00 | 99 | 1007.7 |
| 20260903150939 | 58 | 9 | 0.0 | 0.0 | 0.00 | 0.00 | 0.00 | 99 | 1007.6 |
| 20260903150433 | 57 | 9 | 0.0 | 0.0 | 0.00 | 0.00 | 0.00 | 99 | 1007.6 |
| 20260903145928 | 57 | 9 | 0.0 | 0.0 | 0.00 | 0.00 | 0.00 | 99 | 1007.6 |
| 20260903145424 | 57 | 9 | 0.0 | 0.0 | 0.00 | 0.00 | 0.00 | 99 | 1007.5 |
| 20260903144923 | 57 | 9 | 0.0 | 0.0 | 0.00 | 0.00 | 0.00 | 99 | 1007.6 |
| 20260903144418 | 57 | 9 | 0.0 | 0.0 | 0.00 | 0.00 | 0.00 | 99 | 1007.8 |
| 20260903143914 | 57 | 9 | 0.0 | 0.0 | 0.00 | 0.00 | 0.00 | 99 | 1007.4 |
| 20260903143410 | 57 | 10 | 0.0 | 0.0 | 0.00 | 0.00 | 0.00 | 99 | 1007.6 |
| 20260903142905 | 57 | 10 | 0.0 | 0.0 | 0.00 | 0.00 | 0.00 | 99 | 1007.4 |
| 20260903142401 | 57 | 10 | 0.0 | 0.0 | 0.00 | 0.00 | 0.00 | 99 | 1007.4 |
| 20260903141857 | 57 | 11 | 0.0 | 0.0 | 0.00 | 0.00 | 0.00 | 99 | 1007.6 |
| 20260903141352 | 57 | 11 | 0.0 | 0.0 | 0.00 | 0.00 | 0.00 | 99 | 1007.5 |
| 20260903140848 | 57 | 10 | 0.0 | 0.0 | 0.00 | 0.00 | 0.00 | 99 | 1007.3 |
| 20260903140343 | 57 | 10 | 0.0 | 0.0 | 0.00 | 0.00 | 0.00 | 99 | 1007.5 |
| 20260903135838 | 57 | 10 | 0.0 | 0.0 | 0.00 | 0.00 | 0.00 | 99 | 1007.3 |
| 20260903135334 | 57 | 10 | 0.0 | 0.0 | 0.00 | 0.00 | 0.00 | 99 | 1007.5 |
| 20260903134832 | 57 | 10 | 0.0 | 0.0 | 0.00 | 0.00 | 0.00 | 99 | 1007.3 |
| 20260903134328 | 57 | 10 | 0.0 | 0.0 | 0.00 | 0.00 | 0.00 | 99 | 1007.4 |
| 20260903133826 | 57 | 10 | 0.0 | 0.0 | 0.00 | 0.00 | 0.00 | 99 | 1007.4 |
| 20260903133322 | 57 | 10 | 0.0 | 0.0 | 0.00 | 0.00 | 0.00 | 99 | 1007.3 |
| 20260903132816 | 57 | 10 | 0.0 | 0.0 | 0.00 | 0.00 | 0.00 | 99 | 1007.4 |
| 20260903132312 | 57 | 10 | 0.0 | 0.0 | 0.00 | 0.00 | 0.00 | 99 | 1007.5 |
| 20260903131807 | 57 | 10 | 0.0 | 0.0 | 0.00 | 0.00 | 0.00 | 99 | 1007.3 |
| 20260903131306 | 57 | 10 | 0.0 | 0.0 | 0.00 | 0.00 | 0.00 | 99 | 1007.3 |
| 20260903130801 | 57 | 10 | 0.0 | 0.0 | 0.00 | 0.00 | 0.00 | 99 | 1007.3 |
| 20260903130255 | 57 | 10 | 0.0 | 0.0 | 0.00 | 0.00 | 0.00 | 99 | 1007.5 |
| 20260903125754 | 57 | 10 | 0.0 | 0.0 | 0.00 | 0.00 | 0.00 | 99 | 1007.2 |
| 20260903125250 | 57 | 10 | 0.0 | 0.0 | 0.00 | 0.00 | 0.00 | 99 | 1007.3 |
| 20260903124749 | 57 | 10 | 0.0 | 0.0 | 0.00 | 0.00 | 0.00 | 99 | 1007.4 |
| 20260903124244 | 57 | 10 | 0.0 | 0.0 | 0.00 | 0.00 | 0.00 | 99 | 1007.5 |
| 20260903123743 | 57 | 10 | 0.0 | 0.0 | 0.00 | 0.00 | 0.00 | 99 | 1007.2 |
| 20260903123242 | 57 | 11 | 0.0 | 0.0 | 0.00 | 0.00 | 0.00 | 99 | 1007.3 |
| 20260903122741 | 57 | 10 | 0.0 | 0.0 | 0.00 | 0.00 | 0.00 | 99 | 1007.2 |
| 20260903122236 | 57 | 10 | 0.0 | 0.0 | 0.00 | 0.00 | 0.00 | 99 | 1007.1 |
| 20260903121734 | 57 | 10 | 0.0 | 0.0 | 0.00 | 0.00 | 0.00 | 99 | 1007.4 |
| 20260903121230 | 57 | 11 | 0.0 | 0.0 | 0.00 | 0.00 | 0.00 | 99 | 1007.5 |
| 20260903120730 | 57 | 11 | 0.0 | 0.0 | 0.00 | 0.00 | 0.00 | 99 | 1007.5 |
| 20260903120225 | 57 | 11 | 0.0 | 0.0 | 0.00 | 0.00 | 0.00 | 99 | 1007.4 |
| 20260903115723 | 57 | 11 | 0.0 | 0.0 | 0.00 | 0.00 | 0.00 | 99 | 1007.3 |
| 20260903115218 | 57 | 10 | 0.0 | 0.0 | 0.00 | 0.00 | 0.00 | 99 | 1007.9 |
| 20260903114713 | 57 | 10 | 0.0 | 0.0 | 0.00 | 0.00 | 0.00 | 99 | 1007.6 |
| 20260903114208 | 57 | 10 | 0.0 | 0.0 | 0.00 | 0.00 | 0.00 | 99 | 1007.8 |
| 20260903113703 | 57 | 11 | 0.0 | 0.0 | 0.00 | 0.00 | 0.00 | 99 | 1008.1 |
| 20260903113200 | 57 | 11 | 0.0 | 0.0 | 0.00 | 0.00 | 0.00 | 99 | 1007.8 |
| 20260903112655 | 57 | 11 | 0.0 | 0.0 | 0.00 | 0.00 | 0.00 | 99 | 1007.7 |
| 20260903112150 | 57 | 10 | 0.0 | 0.0 | 0.00 | 0.00 | 0.00 | 99 | 1007.8 |
| 20260903111649 | 57 | 10 | 0.0 | 0.0 | 0.00 | 0.00 | 0.00 | 99 | 1008.0 |
| 20260903111144 | 57 | 10 | 0.0 | 0.0 | 0.00 | 0.00 | 0.00 | 99 | 1007.8 |
| 20260903110641 | 57 | 10 | 0.0 | 0.0 | 0.00 | 0.00 | 0.00 | 99 | 1007.9 |
| 20260903110136 | 57 | 11 | 0.0 | 0.0 | 0.00 | 0.00 | 0.00 | 99 | 1007.8 |
| 20260903105630 | 57 | 11 | 0.0 | 0.0 | 0.00 | 0.00 | 0.00 | 99 | 1007.7 |
| 20260903105126 | 57 | 10 | 0.0 | 0.0 | 0.00 | 0.00 | 0.00 | 99 | 1007.7 |
| 20260903104625 | 57 | 10 | 0.0 | 0.0 | 0.00 | 0.00 | 0.00 | 99 | 1008.0 |
| 20260903104121 | 57 | 9 | 0.0 | 0.0 | 0.00 | 0.00 | 0.00 | 99 | 1007.9 |
| 20260903103616 | 57 | 10 | 0.0 | 0.0 | 0.00 | 0.00 | 0.00 | 99 | 1007.9 |
| 20260903103112 | 57 | 10 | 0.0 | 0.0 | 0.00 | 0.00 | 0.00 | 99 | 1007.8 |
| 20260903102608 | 57 | 10 | 0.0 | 0.0 | 0.00 | 0.00 | 0.00 | 99 | 1007.9 |
| 20260903102107 | 57 | 10 | 0.0 | 0.0 | 0.00 | 0.00 | 0.00 | 99 | 1007.8 |
| 20260903101601 | 57 | 10 | 0.0 | 0.0 | 0.00 | 0.00 | 0.00 | 99 | 1008.2 |
| 20260903101057 | 57 | 10 | 0.0 | 0.0 | 0.00 | 0.00 | 0.00 | 99 | 1007.9 |
| 20260903100557 | 57 | 10 | 0.0 | 0.0 | 0.00 | 0.00 | 0.00 | 99 | 1008.2 |
| 20260903100055 | 57 | 10 | 0.0 | 0.0 | 0.00 | 0.00 | 0.00 | 99 | 1008.1 |
| 20260903095554 | 57 | 9 | 0.0 | 0.0 | 0.00 | 0.00 | 0.00 | 99 | 1008.2 |
| 20260903095049 | 57 | 9 | 0.0 | 0.0 | 0.00 | 0.00 | 0.00 | 99 | 1008.2 |
| 20260903094549 | 57 | 11 | 0.0 | 0.0 | 0.00 | 0.00 | 0.00 | 99 | 1008.1 |
| 20260903094044 | 57 | 11 | 0.0 | 0.0 | 0.00 | 0.00 | 0.00 | 99 | 1008.3 |
| 20260903093539 | 57 | 12 | 0.0 | 0.0 | 0.00 | 0.00 | 0.00 | 99 | 1008.1 |
| 20260903093035 | 57 | 11 | 0.0 | 0.0 | 0.00 | 0.00 | 0.00 | 99 | 1008.2 |
| 20260903092534 | 57 | 11 | 0.0 | 0.0 | 0.00 | 0.00 | 0.00 | 99 | 1008.6 |
| 20260903092028 | 57 | 11 | 0.0 | 0.0 | 0.00 | 0.00 | 0.00 | 99 | 1008.3 |
| 20260903091526 | 57 | 11 | 0.0 | 0.0 | 0.00 | 0.00 | 0.00 | 99 | 1008.4 |
| 20260903091021 | 57 | 11 | 0.0 | 0.0 | 0.00 | 0.00 | 0.00 | 99 | 1008.8 |
| 20260903090518 | 57 | 11 | 0.0 | 0.0 | 0.00 | 0.00 | 0.00 | 99 | 1008.5 |
| 20260903090016 | 57 | 11 | 0.0 | 0.0 | 0.00 | 0.00 | 0.00 | 99 | 1008.5 |
| 20260903085514 | 57 | 11 | 0.0 | 0.0 | 0.00 | 0.00 | 0.00 | 99 | 1008.6 |
| 20260903085010 | 57 | 11 | 0.0 | 0.0 | 0.00 | 0.00 | 0.00 | 99 | 1008.5 |
| 20260903084508 | 58 | 11 | 0.0 | 0.0 | 0.00 | 0.00 | 0.00 | 99 | 1008.5 |
| 20260903084004 | 57 | 11 | 0.0 | 0.0 | 0.00 | 0.00 | 0.00 | 99 | 1008.6 |
| 20260903083459 | 57 | 11 | 0.0 | 0.0 | 0.00 | 0.00 | 0.00 | 99 | 1008.5 |
| 20260903082958 | 58 | 11 | 0.0 | 0.0 | 0.00 | 0.00 | 0.00 | 99 | 1008.4 |
| 20260903082453 | 58 | 11 | 0.0 | 0.0 | 0.00 | 0.00 | 0.00 | 99 | 1008.3 |
| 20260903081948 | 58 | 11 | 0.0 | 0.0 | 0.00 | 0.00 | 0.00 | 99 | 1008.6 |
| 20260903081444 | 58 | 11 | 0.0 | 0.0 | 0.00 | 0.00 | 0.00 | 99 | 1008.7 |
| 20260903080940 | 58 | 11 | 0.0 | 0.0 | 0.00 | 0.00 | 0.00 | 99 | 1008.5 |
| 20260903080435 | 58 | 11 | 0.0 | 0.0 | 0.00 | 0.00 | 0.00 | 99 | 1008.7 |
| 20260903075931 | 58 | 11 | 0.0 | 0.0 | 0.00 | 0.00 | 0.00 | 99 | 1008.5 |
| 20260903075426 | 58 | 11 | 0.0 | 0.0 | 0.00 | 0.00 | 0.00 | 99 | 1008.5 |
| 20260903074921 | 58 | 11 | 0.0 | 0.0 | 0.00 | 0.00 | 0.00 | 99 | 1008.5 |
| 20260903074420 | 58 | 11 | 0.0 | 0.0 | 0.00 | 0.00 | 0.00 | 99 | 1008.5 |
| 20260903073916 | 58 | 11 | 0.0 | 0.0 | 0.00 | 0.00 | 0.00 | 99 | 1008.4 |
| 20260903073411 | 58 | 11 | 0.0 | 0.0 | 0.00 | 0.00 | 0.00 | 99 | 1008.4 |
| 20260903072907 | 58 | 347 | 0.0 | 0.0 | 0.00 | 0.00 | 0.00 | 99 | 1008.6 |
| 20260903072403 | 58 | 347 | 0.0 | 0.0 | 0.00 | 0.00 | 0.00 | 99 | 1008.3 |
| 20260903071859 | 58 | 347 | 0.0 | 0.0 | 0.00 | 0.00 | 0.00 | 99 | 1008.3 |
| 20260903071355 | 58 | 347 | 0.0 | 0.0 | 0.00 | 0.00 | 0.00 | 99 | 1008.4 |
| 20260903070850 | 58 | 347 | 0.0 | 0.0 | 0.00 | 0.00 | 0.00 | 99 | 1008.2 |
| 20260903070345 | 58 | 347 | 0.0 | 0.0 | 0.00 | 0.00 | 0.00 | 99 | 1008.5 |
| 20260903065840 | 58 | 347 | 0.0 | 0.0 | 0.00 | 0.28 | 0.28 | 99 | 1008.1 |
| 20260903065339 | 58 | 347 | 0.0 | 0.0 | 0.00 | 0.28 | 0.28 | 99 | 1008.4 |
| 20260903064839 | 58 | 347 | 0.0 | 0.0 | 0.00 | 0.28 | 0.28 | 99 | 1008.3 |
| 20260903064334 | 58 | 348 | 0.0 | 0.0 | 0.00 | 0.28 | 0.28 | 99 | 1008.3 |
| 20260903063830 | 58 | 348 | 0.0 | 0.0 | 0.00 | 0.28 | 0.28 | 99 | 1008.2 |
| 20260903063325 | 58 | 348 | 0.0 | 0.0 | 0.00 | 0.28 | 0.28 | 99 | 1008.1 |
| 20260903062821 | 58 | 341 | 0.0 | 0.0 | 0.00 | 0.28 | 0.28 | 99 | 1008.1 |
| 20260903062320 | 58 | 28 | 0.0 | 0.0 | 0.00 | 0.28 | 0.28 | 99 | 1008.2 |
| 20260903061817 | 58 | 28 | 0.0 | 0.0 | 0.00 | 0.28 | 0.28 | 99 | 1008.3 |
| 20260903061315 | 58 | 28 | 0.0 | 0.0 | 0.00 | 0.28 | 0.28 | 99 | 1008.3 |
| 20260903060811 | 58 | 28 | 0.0 | 0.0 | 0.00 | 0.28 | 0.28 | 99 | 1008.2 |
| 20260903060305 | 58 | 26 | 0.0 | 0.0 | 0.00 | 0.28 | 0.28 | 99 | 1008.3 |
| 20260903055803 | 58 | 22 | 0.0 | 1.0 | 0.00 | 0.28 | 0.28 | 99 | 1008.3 |
| 20260903055302 | 58 | 22 | 1.0 | 1.0 | 0.00 | 0.28 | 0.28 | 99 | 1008.4 |
| 20260903054756 | 58 | 15 | 0.0 | 0.0 | 0.00 | 0.28 | 0.28 | 99 | 1008.6 |
| 20260903054252 | 58 | 33 | 0.0 | 1.0 | 0.00 | 0.28 | 0.28 | 99 | 1008.5 |
| 20260903053748 | 58 | 32 | 0.0 | 0.0 | 0.00 | 0.28 | 0.28 | 99 | 1008.5 |
| 20260903053248 | 58 | 36 | 0.0 | 0.0 | 0.00 | 0.28 | 0.28 | 99 | 1008.6 |
| 20260903052744 | 58 | 31 | 0.0 | 0.0 | 0.00 | 0.28 | 0.28 | 99 | 1008.7 |